Regional Weather Roundup
Issued by NWS Sterling, VA

Current Version | Previous Version | Text Only | Print | Product List | Glossary On
Versions: 1 2 3 4 5 6 7 8 9 10 11 12 13 14 15 16 17 18 19 20 21 22 23 24 25 26 27
000
ASUS41 KLWX 061310
RWRLWX

REGIONAL WEATHER ROUNDUP
NATIONAL WEATHER SERVICE BALTIMORE MD/WASHINGTON DC
900 AM EDT FRI MAY 06 2016

Note: "FAIR" indicates few or no clouds below 12,000 feet
with no significant weather and/or obstructions to visibility.
 TC=TEMPERATURE CELSIUS

 * =Non NWS site. Station does not report precipitation (e.g. rain,
    snow, etc.), thunder, or fog.

DCZ001-MDZ009-015-VAZ040>042-051-053>054-061400-
WASHINGTON METRO

CITY           SKY/WX    TMP DP  RH WIND       PRES   REMARKS
WASHINGTON NAT LGT RAIN  53  50  89 N10       29.69R
DULLES         LGT RAIN  53  49  86 N8        29.69S
ANDREWS AFB    LGT RAIN  51  50  94 N7        29.66S
FT BELVOIR     LGT RAIN  53  50  90 N3        29.68S
QUANTICO       LGT RAIN  54  50  86 N10       29.69S
COLLEGE PARK*  CLOUDY    52  50  93 CALM      29.68S
LEESBURG*      LGT RAIN  54  54 100 N8        29.70S
MANASSAS*      LGT RAIN  54  54 100 N7        29.70R
GAITHERSBURG*  CLOUDY    52  46  82 MISG      29.72S

$$

MDZ006>007-011-014-061400-
BALTIMORE METRO

CITY           SKY/WX    TMP DP  RH WIND       PRES   REMARKS
BWI AIRPORT    LGT RAIN  52  50  93 N6        29.67S FOG
MD SCIENCE CTR   N/A     53  49  86 MISG      29.68S
MARTIN STATE   RAIN      54  54 100 N6        29.69S
ANNAPOLIS      LGT RAIN  52  50  93 NE6       29.67R FOG
FORT MEADE*    CLOUDY    52  48  87 N5        29.70S

$$

MDZ012-015-019>023-061400-
MARYLAND EASTERN SHORE

CITY           SKY/WX    TMP DP  RH WIND       PRES   REMARKS
OCEAN CITY     LGT RAIN  49  47  93 N16G23    29.62F
SALISBURY      LGT RAIN  48  46  93 N8        29.64F FOG
CAMBRIDGE*       N/A     46  46 100 CALM      29.66S
EASTON*        RAIN     N/A N/A N/A NE5       29.70R

$$

MDZ017>025-061400-
SOUTHERN MARYLAND

CITY           SKY/WX    TMP DP  RH WIND       PRES   REMARKS
PATUXENT RIVER RAIN      50  47  89 E8        29.67R FOG
ST INIGOES     RAIN      50  48  93 NE5       29.66S FOG
LEONARDTOWN*   CLOUDY    50  46  87 CALM      29.68S

$$

MDZ003>005-061400-
NORTH CENTRAL MARYLAND

CITY           SKY/WX    TMP DP  RH WIND       PRES   REMARKS
FREDERICK*     CLOUDY    54  52  94 N6        29.72S
HAGERSTOWN APT CLOUDY    54  48  80 N9        29.70F
WESTMINSTER*   LGT RAIN  52  48  87 N6        29.68S

$$

MDZ501>502-061400-
WESTERN MARYLAND

CITY           SKY/WX    TMP DP  RH WIND       PRES   REMARKS
OAKLAND*       CLOUDY    41  41 100 N7        29.78R FOG
CUMBERLAND*    PTSUNNY   54  46  76 N7        29.79S

$$

VAZ025>031-061400-
SHENANDOAH VALLEY

CITY           SKY/WX    TMP DP  RH WIND       PRES   REMARKS
WINCHESTER*    LGT RAIN  52  50  93 NW7       29.72S
FRONT ROYAL*   CLOUDY    50  50 100 N3        29.71S
LURAY*         LGT RAIN  50  50 100 N8        29.72S
NEW MARKET*    CLOUDY    50  50  97 CALM      29.72S
STAUNTON*      CLOUDY    53  51  95 N6        29.75R
WAYNESBORO*    CLOUDY    49  48  96 NW6       29.73R

$$

WVZ021-048>050-054>055-061400-
EASTERN WEST VIRGINIA PANHANDLE

CITY           SKY/WX    TMP DP  RH WIND       PRES   REMARKS
MARTINSBURG    LGT RAIN  52  48  86 N7        29.71S
PETERSBURG*    CLOUDY    53  50  89 CALM      29.77S

$$

VAZ036>039-050-061400-
CENTRAL FOOTHILLS

CITY           SKY/WX    TMP DP  RH WIND       PRES   REMARKS
CHARLOTTESVILL LGT RAIN  53  50  89 CALM      29.71R
CULPEPER*      RAIN      53  52  96 N5        29.71S
ORANGE*        LGT RAIN  52  52 100 SW3       29.72R
GORDONSVILLE*  CLOUDY    51  50  96 N6        29.70S
WARRENTON*     DRIZZLE   54  48  81 N8        29.69S

$$

VAZ055>057-061400-
NORTH AND CENTRAL PIEDMONT

CITY           SKY/WX    TMP DP  RH WIND       PRES   REMARKS
FREDERICKSBRG* DRIZZLE   54  54 100 N8        29.68S
STAFFORD*      DRIZZLE   52  50  93 NW9       29.73R

$$

NCZ024-NYZ072-PAZ021-071-VAZ022-071-061400-
OTHER REGIONAL OBSERVATIONS

CITY           SKY/WX    TMP DP  RH WIND       PRES   REMARKS
NEW YORK CITY  LGT RAIN  48  45  89 NE10G20   29.72S
PHILADELPHIA   HVY RAIN  50  46  86 NE9       29.68S FOG
PITTSBURGH     MOSUNNY   56  42  59 N12       29.83R
ROANOKE        CLOUDY    56  45  66 NW14      29.76R
RICHMOND       RAIN      51  50  96 N6        29.67S FOG
RALEIGH        LGT RAIN  52  52 100 NW5       29.72R

$$

ANZ530>537-061400-
MARINE OBSERVATIONS

STATION/POSITION TIME  TEMP    WIND        PRES
                       AIR SEA DIR/SP/G
                 (UTC) (F)     (DEG/KT/KT) (MB)
THOMAS PT LIGHT  1300   51 58   70/  7/  9 1006.0R
BALT KEY BRIDGE  1200   52     360/  6/  7 1004.7R
COVE POINT       1200   50     110/ 11/ 12 1004.9R
LEWISETTA        1200   52 60   90/ 10/ 12 1004.0R
SOLOMONS ISLAND  1200   51 60   70/  8/ 10   N/A
PINEY POINT      1200          100/  7/  9   N/A

$$





USA.gov is the U.S. government's official web portal to all federal, state and local government web resources and services.